Location: Bemmer
(51.5498°N, 5.6249°E)
Time: 13:24:21
(UTC+00:00)

USA 306 - Pass Details

Date: 03 March 2021
Orbit: 564 x 577 km, 54.0° (Epoch: 10 April)

Event Time Altitude Azimuth Distance (km) Brightness Sun altitude
Rises 18:18:55 0° 266° (W) 2,783 8.7 -9.7°
Reaches altitude 10° 18:21:11 10° 269° (W) 1,883 7.2 -10.1°
Maximum altitude 18:25:27 65° 352° (N) 632 3.1 -10.7°
Enters shadow 18:28:59 15° 73° (ENE) 1,596 4.6 -11.3°
